QPF
0.10 0.11 0.11 0.12 0.13 0.14 0.16 0.18 0.18 0.17 0.20 0.18 0.13 0.11 0.11 0.12 0.11 0.11 0.08 0.05 0.05 0.05 0.04 0.04 0.05 0.05 0.06 0.08 0.10 0.13 0.13 0.13 0.10 0.07 0.05 0.04 0.07 0.10 0.10 0.07 0.06 0.05 0.04
0.15 0.15 0.15 0.15 0.15 0.15 0.17 0.18 0.17 0.18 0.18 0.16 0.11 0.10 0.10 0.11 0.11 0.09 0.07 0.08 0.06 0.06 0.06 0.06 0.06 0.07 0.08 0.09 0.09 0.11 0.14 0.15 0.12 0.09 0.06 0.05 0.05 0.07 0.10 0.13 0.11 0.08 0.06
0.16 0.18 0.17 0.16 0.14 0.13 0.15 0.16 0.14 0.15 0.12 0.10 0.07 0.07 0.08 0.07 0.07 0.07 0.07 0.07 0.08 0.06 0.05 0.05 0.06 0.08 0.08 0.09 0.11 0.12 0.12 0.12 0.11 0.09 0.08 0.09 0.07 0.06 0.08 0.10 0.11 0.10 0.07
0.19 0.23 0.21 0.18 0.14 0.12 0.12 0.11 0.09 0.09 0.08 0.09 0.08 0.07 0.07 0.07 0.05 0.05 0.04 0.05 0.06 0.04 0.04 0.04 0.05 0.06 0.08 0.09 0.11 0.12 0.12 0.12 0.11 0.09 0.08 0.09 0.08 0.08 0.07 0.07 0.08 0.08 0.07
0.27 0.29 0.27 0.21 0.17 0.16 0.15 0.12 0.09 0.07 0.06 0.06 0.05 0.06 0.06 0.05 0.05 0.04 0.05 0.04 0.04 0.04 0.04 0.04 0.03 0.03 0.05 0.08 0.09 0.10 0.11 0.13 0.11 0.09 0.08 0.09 0.10 0.08 0.06 0.05 0.05 0.05 0.04
0.30 0.28 0.23 0.17 0.17 0.17 0.14 0.12 0.09 0.07 0.06 0.05 0.05 0.05 0.05 0.04 0.03 0.03 0.03 0.04 0.03 0.02 0.04 0.05 0.05 0.03 0.03 0.05 0.06 0.08 0.10 0.11 0.11 0.10 0.10 0.11 0.11 0.09 0.05 0.04 0.03 0.04 0.03
0.26 0.22 0.20 0.16 0.11 0.10 0.08 0.07 0.07 0.06 0.04 0.04 0.04 0.04 0.03 0.03 0.02 0.02 0.02 0.02 0.02 0.02 0.03 0.04 0.05 0.05 0.03 0.02 0.02 0.03 0.06 0.07 0.07 0.08 0.07 0.08 0.10 0.10 0.07 0.05 0.03 0.03 0.03
0.24 0.19 0.16 0.14 0.10 0.08 0.06 0.05 0.05 0.04 0.04 0.03 0.03 0.03 0.02 0.02 0.01 0.02 0.02 0.01 0.01 0.02 0.02 0.02 0.02 0.02 0.02 0.03 0.02 0.01 0.03 0.05 0.06 0.07 0.06 0.05 0.06 0.06 0.06 0.06 0.05 0.04 0.03
0.18 0.16 0.16 0.15 0.10 0.07 0.06 0.05 0.05 0.04 0.03 0.03 0.03 0.02 0.02 0.01 0.01 0.01 0.01 0.00 0.00 0.00 0.01 0.01 0.01 0.01 0.01 0.02 0.03 0.02 0.01 0.02 0.04 0.07 0.07 0.05 0.04 0.04 0.04 0.04 0.05 0.05 0.05
0.15 0.14 0.11 0.10 0.09 0.08 0.06 0.04 0.04 0.05 0.04 0.03 0.02 0.02 0.01 0.01 0.01 0.00 0.00 0.00 0.00 0.00 0.00 0.00 0.00 0.00 0.00 0.01 0.02 0.02 0.01 0.01 0.03 0.05 0.07 0.07 0.05 0.04 0.04 0.04 0.06 0.06 0.05
0.12 0.11 0.09 0.08 0.07 0.07 0.06 0.04 0.04 0.04 0.04 0.03 0.02 0.02 0.01 0.01 0.00 0.00 0.00 0.00 0.00 0.00 0.00 0.00 0.00 0.00 0.00 0.01 0.01 0.01 0.01 0.01 0.02 0.02 0.04 0.05 0.06 0.05 0.04 0.05 0.06 0.07 0.07
0.10 0.11 0.10 0.09 0.07 0.07 0.06 0.05 0.05 0.05 0.05 0.04 0.03 0.02 0.01 0.01 0.00 0.00 0.00 0.00 0.00 0.00 0.00 0.00 0.00 0.00 0.01 0.01 0.01 0.01 0.01 0.01 0.01 0.01 0.02 0.03 0.04 0.05 0.05 0.05 0.07 0.08 0.08
0.05 0.07 0.08 0.09 0.09 0.11 0.10 0.08 0.06 0.06 0.06 0.06 0.04 0.03 0.02 0.01 0.01 0.00 0.00 0.00 0.00 0.00 0.00 0.00 0.00 0.00 0.00 0.01 0.01 0.01 0.01 0.01 0.01 0.01 0.01 0.02 0.03 0.04 0.04 0.05 0.06 0.08 0.08
0.03 0.04 0.04 0.05 0.06 0.08 0.10 0.11 0.11 0.10 0.10 0.08 0.06 0.05 0.04 0.03 0.02 0.01 0.01 0.01 0.01 0.00 0.00 0.00 0.00 0.00 0.00 0.01 0.01 0.01 0.01 0.01 0.01 0.01 0.02 0.02 0.03 0.05 0.04 0.03 0.04 0.04 0.05
0.01 0.02 0.03 0.03 0.04 0.05 0.06 0.08 0.11 0.13 0.14 0.13 0.12 0.10 0.08 0.06 0.04 0.03 0.02 0.02 0.01 0.01 0.00 0.00 0.01 0.01 0.01 0.01 0.00 0.01 0.01 0.02 0.01 0.01 0.02 0.02 0.03 0.05 0.06 0.05 0.04 0.03 0.03
0.00 0.00 0.01 0.02 0.03 0.04 0.05 0.06 0.08 0.10 0.12 0.14 0.15 0.14 0.12 0.09 0.08 0.05 0.04 0.03 0.03 0.02 0.01 0.01 0.01 0.01 0.01 0.00 0.00 0.00 0.01 0.01 0.02 0.02 0.02 0.01 0.02 0.03 0.04 0.04 0.04 0.03 0.03
0.00 0.00 0.00 0.00 0.01 0.01 0.03 0.04 0.05 0.07 0.10 0.12 0.13 0.13 0.14 0.13 0.11 0.08 0.06 0.05 0.04 0.03 0.02 0.01 0.02 0.02 0.02 0.01 0.01 0.01 0.00 0.00 0.01 0.01 0.02 0.02 0.01 0.02 0.04 0.04 0.03 0.02 0.03
0.00 0.00 0.00 0.00 0.00 0.00 0.01 0.01 0.02 0.04 0.06 0.09 0.12 0.13 0.13 0.13 0.12 0.10 0.08 0.07 0.05 0.05 0.04 0.03 0.03 0.03 0.03 0.02 0.01 0.01 0.00 0.00 0.00 0.01 0.01 0.01 0.02 0.02 0.03 0.03 0.03 0.03 0.03
0.00 0.00 0.00 0.00 0.00 0.00 0.00 0.01 0.01 0.02 0.03 0.05 0.08 0.11 0.13 0.15 0.15 0.14 0.11 0.08 0.06 0.05 0.05 0.05 0.04 0.04 0.04 0.02 0.02 0.01 0.01 0.00 0.00 0.00 0.00 0.01 0.01 0.01 0.01 0.02 0.02 0.02 0.02
0.01 0.01 0.01 0.00 0.00 0.00 0.00 0.00 0.01 0.01 0.02 0.03 0.04 0.07 0.09 0.10 0.12 0.14 0.13 0.11 0.09 0.07 0.06 0.05 0.05 0.05 0.05 0.03 0.02 0.02 0.01 0.01 0.01 0.00 0.00 0.01 0.01 0.01 0.01 0.01 0.01 0.02 0.02
0.01 0.01 0.01 0.01 0.01 0.01 0.00 0.00 0.01 0.01 0.01 0.02 0.03 0.04 0.05 0.07 0.08 0.10 0.11 0.12 0.11 0.09 0.08 0.06 0.05 0.05 0.05 0.03 0.03 0.02 0.01 0.01 0.01 0.01 0.01 0.01 0.01 0.01 0.01 0.01 0.01 0.01 0.01
0.02 0.03 0.03 0.02 0.02 0.01 0.00 0.00 0.00 0.00 0.01 0.01 0.02 0.02 0.02 0.03 0.04 0.05 0.06 0.08 0.10 0.09 0.08 0.08 0.07 0.06 0.05 0.04 0.03 0.02 0.02 0.01 0.01 0.01 0.01 0.02 0.01 0.01 0.01 0.01 0.01 0.01 0.01
0.04 0.04 0.04 0.04 0.04 0.03 0.01 0.00 0.00 0.01 0.01 0.01 0.01 0.02 0.01 0.01 0.02 0.03 0.04 0.04 0.05 0.06 0.06 0.08 0.09 0.08 0.07 0.06 0.04 0.02 0.02 0.02 0.01 0.01 0.01 0.01 0.02 0.01 0.01 0.01 0.01 0.01 0.01
0.05 0.05 0.06 0.05 0.06 0.04 0.02 0.01 0.01 0.01 0.02 0.02 0.02 0.02 0.02 0.01 0.01 0.02 0.03 0.03 0.03 0.04 0.04 0.05 0.06 0.08 0.11 0.12 0.09 0.05 0.04 0.04 0.03 0.02 0.01 0.01 0.02 0.01 0.01 0.01 0.00 0.00 0.00
0.07 0.07 0.07 0.07 0.07 0.06 0.03 0.01 0.01 0.02 0.03 0.03 0.02 0.01 0.01 0.01 0.01 0.01 0.02 0.03 0.03 0.04 0.04 0.04 0.04 0.07 0.09 0.11 0.10 0.07 0.05 0.05 0.05 0.04 0.03 0.03 0.03 0.02 0.01 0.01 0.00 0.00 0.00
0.08 0.07 0.07 0.07 0.07 0.07 0.04 0.02 0.01 0.03 0.03 0.04 0.04 0.03 0.01 0.01 0.01 0.01 0.01 0.03 0.03 0.04 0.04 0.05 0.04 0.04 0.05 0.07 0.08 0.07 0.05 0.05 0.04 0.03 0.02 0.02 0.02 0.02 0.02 0.01 0.00 0.00 0.00
MSLP
1011.29 1011.28 1011.27 1011.28 1011.32 1011.41 1011.56 1011.75 1011.95 1012.15 1012.30 1012.38 1012.41 1012.38 1012.33 1012.32 1012.36 1012.51 1012.76 1013.12 1013.54 1014.01 1014.46 1014.88 1015.23 1015.52 1015.76 1015.97 1016.17 1016.39 1016.64 1016.93 1017.26 1017.62 1018.00 1018.39 1018.78 1019.17 1019.55 1019.92 1020.27 1020.62 1020.95
1010.97 1010.90 1010.84 1010.79 1010.79 1010.86 1010.98 1011.17 1011.39 1011.61 1011.80 1011.93 1012.00 1012.01 1011.98 1011.96 1011.98 1012.08 1012.26 1012.54 1012.90 1013.31 1013.74 1014.15 1014.53 1014.86 1015.15 1015.41 1015.65 1015.90 1016.16 1016.46 1016.79 1017.14 1017.52 1017.91 1018.31 1018.70 1019.10 1019.48 1019.85 1020.21 1020.56
1010.68 1010.55 1010.44 1010.36 1010.34 1010.39 1010.51 1010.71 1010.95 1011.21 1011.45 1011.64 1011.76 1011.81 1011.80 1011.77 1011.74 1011.76 1011.86 1012.03 1012.29 1012.61 1012.98 1013.37 1013.75 1014.11 1014.45 1014.76 1015.06 1015.35 1015.65 1015.97 1016.30 1016.66 1017.03 1017.42 1017.81 1018.20 1018.59 1018.98 1019.36 1019.73 1020.09
1010.37 1010.20 1010.06 1009.96 1009.93 1009.98 1010.11 1010.33 1010.61 1010.91 1011.20 1011.45 1011.62 1011.72 1011.73 1011.69 1011.62 1011.57 1011.55 1011.61 1011.74 1011.96 1012.24 1012.57 1012.93 1013.31 1013.69 1014.05 1014.41 1014.76 1015.10 1015.44 1015.79 1016.15 1016.52 1016.90 1017.28 1017.67 1018.05 1018.44 1018.82 1019.19 1019.56
1010.03 1009.83 1009.68 1009.57 1009.54 1009.60 1009.75 1009.99 1010.29 1010.63 1010.97 1011.28 1011.51 1011.65 1011.70 1011.67 1011.58 1011.46 1011.35 1011.29 1011.31 1011.40 1011.58 1011.85 1012.17 1012.54 1012.93 1013.33 1013.73 1014.12 1014.50 1014.87 1015.24 1015.61 1015.97 1016.35 1016.72 1017.10 1017.48 1017.87 1018.25 1018.63 1019.00
1009.68 1009.47 1009.31 1009.21 1009.19 1009.25 1009.41 1009.65 1009.96 1010.33 1010.70 1011.05 1011.33 1011.53 1011.63 1011.62 1011.53 1011.39 1011.22 1011.08 1011.00 1010.99 1011.08 1011.26 1011.53 1011.87 1012.25 1012.66 1013.08 1013.50 1013.90 1014.29 1014.66 1015.03 1015.40 1015.77 1016.14 1016.52 1016.90 1017.29 1017.68 1018.06 1018.43
1009.38 1009.17 1009.01 1008.91 1008.89 1008.95 1009.09 1009.32 1009.62 1009.97 1010.35 1010.72 1011.04 1011.29 1011.44 1011.49 1011.44 1011.31 1011.13 1010.96 1010.82 1010.75 1010.76 1010.87 1011.08 1011.37 1011.72 1012.11 1012.52 1012.93 1013.33 1013.71 1014.08 1014.44 1014.81 1015.18 1015.55 1015.94 1016.33 1016.73 1017.13 1017.51 1017.89
1009.19 1008.98 1008.83 1008.74 1008.71 1008.74 1008.85 1009.03 1009.27 1009.58 1009.93 1010.29 1010.63 1010.92 1011.12 1011.23 1011.25 1011.17 1011.04 1010.88 1010.74 1010.64 1010.61 1010.68 1010.84 1011.08 1011.38 1011.73 1012.09 1012.47 1012.83 1013.19 1013.54 1013.88 1014.24 1014.60 1014.99 1015.39 1015.80 1016.21 1016.62 1017.02 1017.39
1009.17 1008.97 1008.83 1008.73 1008.68 1008.68 1008.73 1008.83 1009.00 1009.22 1009.50 1009.82 1010.14 1010.44 1010.69 1010.86 1010.95 1010.96 1010.90 1010.80 1010.70 1010.62 1010.60 1010.65 1010.77 1010.97 1011.22 1011.51 1011.82 1012.14 1012.45 1012.76 1013.07 1013.39 1013.72 1014.09 1014.48 1014.89 1015.33 1015.76 1016.18 1016.58 1016.94
1009.32 1009.14 1009.01 1008.91 1008.84 1008.79 1008.77 1008.78 1008.84 1008.96 1009.15 1009.38 1009.65 1009.93 1010.19 1010.41 1010.57 1010.66 1010.69 1010.68 1010.65 1010.63 1010.64 1010.70 1010.82 1010.99 1011.20 1011.44 1011.69 1011.94 1012.19 1012.44 1012.70 1012.99 1013.31 1013.66 1014.06 1014.49 1014.93 1015.38 1015.80 1016.20 1016.54
1009.59 1009.44 1009.33 1009.24 1009.16 1009.07 1008.98 1008.90 1008.86 1008.86 1008.93 1009.07 1009.26 1009.48 1009.73 1009.96 1010.15 1010.31 1010.41 1010.48 1010.53 1010.58 1010.65 1010.75 1010.88 1011.05 1011.24 1011.45 1011.65 1011.85 1012.05 1012.25 1012.47 1012.72 1013.01 1013.36 1013.75 1014.18 1014.63 1015.08 1015.49 1015.86 1016.17
1009.88 1009.77 1009.70 1009.63 1009.55 1009.44 1009.31 1009.17 1009.04 1008.94 1008.90 1008.93 1009.03 1009.18 1009.37 1009.57 1009.76 1009.94 1010.08 1010.21 1010.32 1010.43 1010.56 1010.71 1010.89 1011.08 1011.28 1011.48 1011.67 1011.84 1012.00 1012.17 1012.35 1012.58 1012.85 1013.18 1013.56 1013.98 1014.42 1014.84 1015.23 1015.55 1015.80
1010.07 1010.02 1010.00 1009.97 1009.91 1009.82 1009.68 1009.51 1009.34 1009.18 1009.06 1009.00 1009.00 1009.06 1009.17 1009.31 1009.46 1009.61 1009.75 1009.89 1010.03 1010.19 1010.37 1010.57 1010.80 1011.03 1011.27 1011.49 1011.69 1011.87 1012.03 1012.19 1012.36 1012.57 1012.82 1013.13 1013.49 1013.88 1014.28 1014.66 1014.99 1015.25 1015.43
1010.07 1010.08 1010.11 1010.14 1010.14 1010.09 1009.99 1009.84 1009.67 1009.49 1009.34 1009.23 1009.16 1009.14 1009.16 1009.21 1009.29 1009.37 1009.47 1009.58 1009.71 1009.88 1010.09 1010.33 1010.61 1010.90 1011.19 1011.47 1011.71 1011.93 1012.11 1012.28 1012.46 1012.67 1012.91 1013.19 1013.52 1013.86 1014.21 1014.53 1014.78 1014.96 1015.04
1009.81 1009.88 1009.97 1010.07 1010.14 1010.16 1010.13 1010.05 1009.94 1009.80 1009.66 1009.54 1009.44 1009.36 1009.31 1009.28 1009.26 1009.25 1009.27 1009.32 1009.41 1009.56 1009.77 1010.04 1010.36 1010.71 1011.06 1011.41 1011.72 1011.99 1012.23 1012.44 1012.64 1012.84 1013.07 1013.33 1013.61 1013.91 1014.18 1014.42 1014.59 1014.66 1014.65
1009.30 1009.41 1009.56 1009.72 1009.86 1009.97 1010.04 1010.06 1010.03 1009.98 1009.91 1009.83 1009.74 1009.65 1009.55 1009.46 1009.36 1009.26 1009.19 1009.16 1009.19 1009.30 1009.49 1009.76 1010.11 1010.51 1010.92 1011.34 1011.72 1012.06 1012.36 1012.61 1012.84 1013.06 1013.28 1013.52 1013.76 1013.99 1014.19 1014.34 1014.42 1014.41 1014.30
1008.60 1008.73 1008.91 1009.11 1009.32 1009.51 1009.67 1009.80 1009.89 1009.95 1009.97 1009.97 1009.94 1009.88 1009.79 1009.66 1009.52 1009.36 1009.22 1009.12 1009.08 1009.14 1009.29 1009.55 1009.91 1010.34 1010.80 1011.27 1011.71 1012.12 1012.47 1012.78 1013.04 1013.27 1013.50 1013.71 1013.91 1014.09 1014.23 1014.31 1014.31 1014.22 1014.04
1007.79 1007.92 1008.10 1008.32 1008.57 1008.82 1009.05 1009.27 1009.47 1009.64 1009.78 1009.88 1009.95 1009.95 1009.91 1009.80 1009.65 1009.47 1009.29 1009.15 1009.06 1009.08 1009.20 1009.44 1009.78 1010.21 1010.70 1011.20 1011.69 1012.14 1012.54 1012.88 1013.18 1013.43 1013.66 1013.87 1014.05 1014.20 1014.30 1014.33 1014.28 1014.15 1013.93
1006.97 1007.07 1007.23 1007.44 1007.69 1007.96 1008.24 1008.52 1008.79 1009.06 1009.30 1009.52 1009.68 1009.79 1009.82 1009.78 1009.68 1009.52 1009.35 1009.20 1009.09 1009.08 1009.17 1009.38 1009.70 1010.12 1010.60 1011.10 1011.61 1012.08 1012.51 1012.89 1013.21 1013.49 1013.74 1013.96 1014.14 1014.29 1014.39 1014.42 1014.37 1014.23 1014.00
1006.20 1006.25 1006.37 1006.54 1006.76 1007.01 1007.29 1007.59 1007.91 1008.24 1008.56 1008.87 1009.13 1009.35 1009.48 1009.54 1009.52 1009.44 1009.32 1009.19 1009.10 1009.08 1009.15 1009.33 1009.61 1010.00 1010.44 1010.93 1011.42 1011.90 1012.34 1012.74 1013.09 1013.41 1013.70 1013.96 1014.18 1014.37 1014.51 1014.58 1014.56 1014.46 1014.28
1005.49 1005.48 1005.55 1005.67 1005.83 1006.04 1006.28 1006.57 1006.89 1007.24 1007.61 1007.99 1008.34 1008.65 1008.90 1009.07 1009.16 1009.17 1009.13 1009.07 1009.01 1009.00 1009.06 1009.21 1009.46 1009.79 1010.19 1010.63 1011.09 1011.55 1012.00 1012.41 1012.81 1013.17 1013.52 1013.85 1014.15 1014.42 1014.63 1014.78 1014.85 1014.83 1014.72
1004.82 1004.77 1004.78 1004.84 1004.94 1005.09 1005.29 1005.53 1005.82 1006.17 1006.55 1006.97 1007.38 1007.78 1008.13 1008.41 1008.61 1008.73 1008.78 1008.79 1008.78 1008.80 1008.85 1008.97 1009.17 1009.45 1009.79 1010.18 1010.60 1011.03 1011.48 1011.92 1012.35 1012.79 1013.22 1013.64 1014.04 1014.42 1014.75 1015.01 1015.19 1015.27 1015.27
1004.17 1004.08 1004.05 1004.06 1004.11 1004.21 1004.35 1004.54 1004.80 1005.11 1005.49 1005.92 1006.37 1006.82 1007.25 1007.62 1007.92 1008.13 1008.27 1008.36 1008.40 1008.44 1008.49 1008.59 1008.74 1008.96 1009.24 1009.57 1009.95 1010.37 1010.81 1011.28 1011.77 1012.28 1012.80 1013.33 1013.86 1014.36 1014.81 1015.20 1015.51 1015.72 1015.83
1003.49 1003.38 1003.33 1003.32 1003.35 1003.41 1003.51 1003.67 1003.89 1004.18 1004.54 1004.96 1005.42 1005.90 1006.37 1006.80 1007.17 1007.46 1007.66 1007.80 1007.88 1007.94 1007.99 1008.06 1008.17 1008.34 1008.57 1008.86 1009.20 1009.61 1010.06 1010.57 1011.11 1011.70 1012.32 1012.96 1013.60 1014.22 1014.80 1015.31 1015.74 1016.06 1016.28
1002.79 1002.69 1002.64 1002.63 1002.66 1002.71 1002.81 1002.95 1003.15 1003.42 1003.76 1004.17 1004.63 1005.11 1005.59 1006.05 1006.45 1006.77 1007.02 1007.18 1007.29 1007.35 1007.39 1007.44 1007.53 1007.66 1007.85 1008.11 1008.44 1008.85 1009.32 1009.86 1010.47 1011.13 1011.83 1012.56 1013.29 1014.01 1014.68 1015.29 1015.81 1016.23 1016.55
1002.10 1002.00 1001.97 1001.99 1002.04 1002.12 1002.23 1002.38 1002.59 1002.85 1003.18 1003.58 1004.02 1004.49 1004.96 1005.41 1005.81 1006.14 1006.38 1006.56 1006.66 1006.72 1006.76 1006.80 1006.87 1006.99 1007.17 1007.42 1007.76 1008.17 1008.67 1009.25 1009.90 1010.61 1011.37 1012.16 1012.95 1013.73 1014.46 1015.13 1015.71 1016.19 1016.57
Thickness
5749 5748 5746 5745 5745 5745 5745 5744 5745 5746 5746 5747 5748 5749 5748 5749 5748 5749 5749 5746 5744 5742 5740 5739 5738 5737 5737 5736 5735 5733 5731 5730 5729 5728 5727 5726 5726 5725 5725 5724 5723 5722 5721
5743 5742 5742 5740 5741 5740 5741 5740 5742 5743 5743 5744 5745 5747 5747 5747 5747 5747 5747 5747 5744 5742 5741 5739 5738 5737 5736 5735 5734 5733 5731 5729 5728 5727 5727 5726 5726 5726 5725 5724 5723 5722 5721
5736 5735 5736 5736 5737 5737 5736 5736 5739 5740 5740 5741 5743 5745 5745 5746 5747 5746 5746 5746 5746 5744 5742 5740 5739 5738 5736 5735 5734 5733 5732 5730 5728 5727 5726 5726 5725 5725 5725 5724 5724 5723 5722
5729 5729 5729 5730 5731 5732 5733 5733 5734 5736 5737 5738 5739 5741 5743 5744 5745 5745 5746 5746 5745 5747 5744 5741 5739 5738 5736 5735 5734 5733 5732 5730 5728 5727 5726 5725 5725 5725 5725 5724 5724 5723 5723
5723 5724 5724 5725 5725 5728 5728 5730 5732 5732 5732 5732 5735 5736 5739 5741 5743 5744 5745 5745 5745 5744 5745 5743 5739 5738 5736 5734 5733 5732 5731 5730 5729 5727 5726 5725 5724 5724 5724 5723 5723 5723 5723
5719 5719 5720 5720 5721 5723 5723 5724 5724 5724 5726 5727 5730 5734 5736 5740 5740 5742 5742 5745 5744 5744 5744 5744 5741 5739 5736 5735 5733 5732 5731 5730 5728 5727 5725 5725 5724 5723 5723 5723 5723 5723 5723
5715 5715 5716 5716 5716 5718 5718 5719 5719 5720 5721 5723 5723 5725 5732 5735 5736 5738 5741 5743 5745 5744 5743 5742 5741 5741 5740 5735 5734 5733 5732 5730 5728 5726 5725 5724 5723 5722 5722 5721 5722 5722 5723
5710 5710 5711 5712 5712 5712 5711 5713 5713 5715 5718 5719 5718 5719 5722 5727 5728 5736 5737 5738 5740 5741 5741 5741 5740 5738 5738 5739 5737 5733 5731 5730 5728 5726 5725 5724 5723 5722 5721 5721 5721 5721 5722
5704 5703 5705 5706 5706 5707 5707 5708 5709 5707 5710 5713 5715 5714 5715 5720 5726 5730 5731 5734 5734 5736 5738 5739 5738 5737 5736 5737 5736 5734 5732 5730 5728 5727 5725 5723 5722 5721 5720 5720 5720 5721 5721
5697 5696 5697 5699 5700 5702 5702 5703 5705 5705 5703 5706 5708 5709 5712 5715 5715 5720 5724 5728 5728 5729 5732 5735 5737 5737 5736 5736 5735 5733 5731 5729 5727 5726 5725 5723 5722 5720 5719 5718 5719 5719 5720
5688 5688 5689 5691 5692 5694 5695 5696 5698 5697 5700 5701 5703 5705 5705 5705 5708 5711 5715 5718 5723 5727 5729 5730 5733 5735 5735 5734 5733 5733 5730 5728 5726 5725 5724 5722 5721 5720 5718 5717 5717 5718 5718
5678 5678 5678 5680 5682 5684 5685 5687 5689 5690 5692 5694 5697 5700 5700 5702 5703 5706 5708 5709 5714 5720 5723 5726 5728 5731 5731 5731 5731 5728 5727 5726 5725 5723 5722 5721 5719 5718 5717 5716 5715 5716 5716
5667 5665 5667 5667 5669 5671 5673 5676 5678 5681 5683 5684 5686 5690 5694 5698 5701 5702 5703 5705 5707 5713 5716 5721 5724 5725 5726 5726 5725 5722 5723 5723 5722 5721 5720 5719 5717 5716 5714 5713 5713 5713 5713
5654 5653 5653 5653 5655 5657 5660 5662 5666 5669 5672 5674 5678 5680 5684 5689 5693 5695 5697 5698 5699 5705 5709 5714 5718 5719 5720 5720 5718 5717 5720 5718 5718 5718 5716 5715 5714 5713 5711 5710 5709 5709 5709
5640 5640 5640 5640 5641 5642 5644 5647 5650 5653 5657 5661 5665 5668 5672 5679 5682 5686 5690 5692 5692 5695 5701 5707 5710 5711 5713 5713 5711 5713 5714 5712 5712 5712 5712 5710 5709 5708 5707 5705 5705 5705 5705
5626 5625 5626 5626 5627 5627 5629 5630 5634 5638 5641 5646 5650 5654 5659 5665 5670 5675 5679 5683 5686 5688 5693 5703 5703 5707 5705 5707 5704 5706 5706 5705 5705 5705 5705 5704 5703 5702 5701 5700 5699 5699 5700
5612 5611 5611 5612 5612 5613 5615 5616 5618 5622 5625 5629 5634 5640 5644 5650 5654 5661 5666 5671 5677 5680 5682 5691 5696 5698 5696 5697 5698 5699 5700 5700 5699 5698 5697 5697 5696 5695 5694 5694 5693 5693 5694
5599 5598 5597 5597 5598 5600 5601 5602 5604 5608 5611 5615 5619 5624 5629 5635 5640 5645 5651 5659 5666 5671 5673 5678 5685 5688 5688 5689 5690 5691 5692 5693 5692 5689 5689 5689 5688 5687 5686 5686 5687 5687 5688
5585 5584 5583 5583 5584 5585 5586 5588 5590 5594 5597 5601 5605 5609 5614 5618 5624 5631 5637 5645 5653 5660 5664 5669 5675 5679 5680 5681 5681 5682 5683 5683 5683 5681 5680 5680 5679 5678 5678 5678 5679 5680 5681
5572 5570 5570 5570 5571 5571 5573 5575 5576 5579 5582 5587 5591 5595 5600 5604 5610 5616 5623 5630 5637 5645 5652 5658 5664 5669 5671 5673 5674 5673 5672 5674 5675 5675 5673 5672 5670 5670 5670 5670 5670 5672 5673
5559 5558 5558 5558 5559 5560 5562 5563 5564 5566 5569 5573 5577 5582 5587 5591 5596 5601 5608 5616 5623 5630 5640 5647 5654 5660 5664 5665 5668 5669 5667 5666 5665 5667 5667 5666 5665 5664 5663 5661 5662 5663 5664
5545 5544 5545 5546 5548 5551 5553 5551 5552 5556 5559 5562 5565 5570 5574 5577 5581 5585 5591 5597 5606 5616 5627 5635 5644 5652 5658 5662 5664 5664 5662 5660 5659 5659 5661 5658 5659 5657 5656 5654 5652 5654 5655
5532 5531 5532 5533 5536 5539 5539 5539 5539 5543 5549 5553 5555 5559 5564 5571 5571 5576 5579 5583 5592 5601 5611 5622 5632 5643 5651 5657 5659 5658 5659 5660 5659 5655 5655 5650 5650 5649 5646 5643 5643 5644 5645
5518 5519 5520 5523 5525 5527 5528 5528 5529 5533 5540 5545 5548 5551 5554 5559 5564 5566 5571 5577 5584 5594 5603 5611 5623 5633 5640 5648 5652 5655 5655 5651 5649 5648 5650 5645 5642 5640 5638 5635 5633 5635 5635
5507 5508 5509 5511 5514 5517 5518 5518 5519 5526 5532 5538 5543 5546 5548 5551 5553 5554 5560 5567 5575 5584 5592 5602 5611 5620 5627 5635 5642 5645 5645 5643 5641 5639 5642 5641 5636 5634 5631 5629 5625 5625 5626
5498 5499 5501 5503 5506 5510 5511 5511 5511 5522 5529 5534 5538 5541 5541 5544 5546 5545 5551 5557 5564 5574 5584 5594 5601 5610 5619 5627 5633 5639 5642 5642 5640 5635 5636 5636 5632 5632 5626 5623 5621 5619 5618